User: anonymous   Login
Location: Pedimozza
(42.0500°N, 9.3500°E)
Time: 10:57:47
(UTC+00:00)
Language:

USA 32 - Orbit

View from above orbital plane
View from above orbital plane
View from above satellite
View from above satellite

Ground track
Ground track

The orbit data is extracted from the following two-line orbital elements,

1 19460U 88078A   19264.79200375 0.00000020  00000-0  72494-5 0    02
2 19460  84.9823 102.1792 0004406  72.3923 287.6075 14.33478873    01
Epoch (UTC): 21 September 2019 19:00:29
Eccentricity: 0.0004406
inclination: 84.9823°
perigee height: 777 km
apogee height: 783 km
right ascension of ascending node: 102.1792°
argument of perigee: 72.3923°
revolutions per day: 14.33478873
mean anomaly at epoch: 287.6075°
orbit number at epoch: 0

The dashed part of the orbit path shows where the satellite is in the earth's shadow,  

DLR